Location: Sternwarte ZA, Rosenfeld-Brittheim
(48.2889°N, 8.6789°E)
Time: 21:32:03
(UTC+02:00)

ISS - Pass Details

Date: 29 May 2017
Orbit: 402 x 409 km, 51.6° (Epoch: 25 May)

Event Time Altitude Azimuth Distance (km) Brightness Sun altitude
Rises 00:48:45 0° 288° (WNW) 2,334 0.4 -19.7°
Reaches altitude 10° 00:50:52 10° 293° (WNW) 1,471 -0.6 -19.7°
Maximum altitude 00:54:07 54° 12° (NNE) 503 -3.1 -19.8°
Enters shadow 00:56:00 22° 83° (E) 949 -2.0 -19.8°
